CORVUS BC2

Last updated on Wed Jul 02 2025 00:03:44 GMT+0000 (Coordinated Universal Time)

1 42846U 17042X 25182.47998895 .00002713 00000+0 20526-3 0 9995 2 42846 97.3768 354.0152 0013158 224.4265 135.5907 15.03059283434321
UTC large
Height (km)
Speed (km/s)
/
Latitude / Longitude
Inclination (degrees)
Orbital Period (minutes)
Azimuth
Elevation
Range (km)
Doppler Factor

Next 0 passes for location: London (51.5072 / 0.1276)

Sorry there are no passes over London.